Home   Weather   Maple Ridge   Past weeks
Flag for Canada

Past Weather in Maple Ridge, British Columbia, Canada — Yesterday and Last 2 Weeks

Now
37 °F

Chilly.


Feels Like: 37 °F
Forecast: 40 / 36 °F
Wind: No wind

Location: P. Meadows Coastal Station

Current Time: Dec 15, 2019 at 10:08:27 am

Latest Report: Dec 15, 2019 at 9:00 am


Visibility: N/A

Pressure: 30.16 "Hg

Humidity: 99%

Dew Point: 37 °F

Location of Maple RidgeLocation

Past Weather in Maple Ridge — Graph

°F

Maple Ridge Temperature Yesterday

Maximum temperature yesterday: 43 °F (at 2:00 pm)
Minimum temperature yesterday: 36 °F (at 3:00 am)
Average temperature yesterday: 40 °F

High & Low Weather Summary for the Past Weeks

 TemperatureHumidityPressure
High48 °F (Dec 7, 1:00 pm)100% (Dec 2, 3:00 am)30.29 "Hg (Dec 2, 3:00 am)
Low20 °F (Dec 1, 1:00 am)63% (Nov 30, 2:00 pm)29.71 "Hg (Dec 7, 5:00 am)
Average40 °F94%30.01 "Hg
* Reported Nov 30 8:00 am — Dec 15 8:00 am, Maple Ridge. Weather by CustomWeather, © 2019

Note: Actual official high and low records may vary slightly from our data, if they occured in-between our weather recording intervals... More about our weather records

Maple Ridge Weather History for the Previous 24 Hours

Scroll right to see more
 ConditionsComfort  
Time TempWeatherWind HumidityBarometerVisibility
8:00 am
Sun, Dec 15
35 °FChilly.1 mph100%30.14 "HgN/A
7:00 am36 °FChilly.No wind98%30.11 "HgN/A
6:00 am36 °FChilly.1 mph97%30.10 "HgN/A
5:00 am38 °FChilly.2 mph99%30.09 "HgN/A
4:00 am36 °FChilly.No wind98%30.08 "HgN/A
3:00 am38 °FChilly.No wind97%30.07 "HgN/A
2:00 am39 °FChilly.2 mph97%30.06 "HgN/A
1:00 am40 °FChilly.No wind97%30.05 "HgN/A
12:00 am39 °FChilly.No wind97%30.04 "HgN/A
11:00 pm
Sat, Dec 14
40 °FChilly.No wind96%30.04 "HgN/A
10:00 pm40 °FQuite cool.No wind94%30.03 "HgN/A
9:00 pm40 °FQuite cool.1 mph94%30.02 "HgN/A
8:00 pm38 °FChilly.No wind100%30.02 "HgN/A
7:00 pm41 °FQuite cool.2 mph93%30.02 "HgN/A
6:00 pm41 °FQuite cool.No wind92%30.02 "HgN/A
5:00 pm42 °FQuite cool.1 mph91%30.02 "HgN/A
4:00 pm42 °FQuite cool.No wind88%30.01 "HgN/A
3:00 pm43 °FQuite cool.2 mph87%30.01 "HgN/A
2:00 pm43 °FQuite cool.2 mph87%30.01 "HgN/A
1:00 pm43 °FQuite cool.3 mph87%30.02 "HgN/A
12:00 pm43 °FQuite cool.1 mph85%30.02 "HgN/A
11:00 am42 °FQuite cool.No wind91%30.03 "HgN/A
10:00 am41 °FQuite cool.No wind94%30.04 "HgN/A
Weather by CustomWeather, © 2019

See weather overview

Advertising